Lees voor het posten de FAQ.

Als je iets zoekt op het forum kun je de zoekmachine raadplegen.

Onderwerp Replies Naam starter Datum
Software Sparta Ion Software Sparta Ion 1 2 3 4 5 6 7 8 9 10 11 12 13 14 15 16 17 18 19 20 21 22 23 24 laatste 576 Technojunk 22-04-2018 19:13:28
PC aansluiting (RS 232?) op Intergas CV ketel HR 28/24 PC aansluiting (RS 232?) op Intergas CV ketel HR 28/24 1 2 3 4 laatste 97 NikNeem 19-04-2018 18:26:54
Neo Pixels aansturen met Arduino 3 Bertjebuk 15-04-2018 19:20:58
arduino mega project op eigen print gebruiken 21 Stijnos 14-04-2018 12:42:05
Klein beeldscherm voor service doeleinden Raspberry PI 7 blackdog 13-04-2018 00:39:29
[Eplan] Connectie TIA Portal en Eplan 2 Glen01 12-04-2018 19:48:05
Arduino schets opslaan 10 Bertjebuk 11-04-2018 07:18:52
Probleem melding Probleem melding 1 2 laatste 28 Bertjebuk 11-04-2018 00:43:05
java applet twee panelen 2 e-tech 07-04-2018 19:51:47
Gesloten Slecht gesteld met programmeervaardigheden 14 Arco 06-04-2018 19:32:27
LOGO8 en Exor ex710 HMI 18 Arthurreke 05-04-2018 22:49:31
HT1621 op Pic met Proton 5 MM 04-04-2018 09:48:32
16X128 RGB lichtkrant 1 JohnBobo 04-04-2018 07:57:43
16x128 RGM scroll matrix 5 JohnBobo 02-04-2018 16:50:16
Informatie / manual AMD Syrah 10 High met Henk 31-03-2018 19:04:35
Eagle5.11: scripts en ulps 14 fatbeard 26-03-2018 23:05:52
Keuzemenu SCADA 0 Engineer1998 26-03-2018 15:22:25
Ontwikkeling van radio reclame killer Ontwikkeling van radio reclame killer 1 2 laatste 43 microdwl 23-03-2018 23:18:06
CPU fan draait niet meer. Mobo of CPU kapot? CPU fan draait niet meer. Mobo of CPU kapot? 1 2 laatste 49 dikke donker 23-03-2018 20:57:19
Inlezen LED status in PC (RS232) 21 pierreke101 22-03-2018 15:36:30
Ultiboard 5.72 en Windows 7 Ultiboard 5.72 en Windows 7 1 2 3 4 5 laatste 102 High met Henk 22-03-2018 14:54:42
Laptop scherm stand alone? 14 High met Henk 22-03-2018 13:26:25
beveiligingslek WIFI Ziggo horizon 18 Bart64 20-03-2018 00:08:02
PIC RASPBERRY via UART 6 TijN 19-03-2018 05:27:16
PCI-E naar USB 3.0 adapter PCI-E naar USB 3.0 adapter 1 2 laatste 28 oxurane 17-03-2018 21:34:30
Arduino 22 Bertjebuk 17-03-2018 16:12:28
PartKeepr 1 ritmeester 15-03-2018 19:06:09
Include i2cdev.h 20 Bertjebuk 09-03-2018 17:02:46
12 bit versturen via UART AVR 7 digitsboy 09-03-2018 16:14:39
Temperatuur value versturen dmv http post vanuit domoticz LUA 10 Tukker85 06-03-2018 21:02:21
Logo save as probleem 5 Stijn13h 06-03-2018 20:40:54
Logo en temperatuur 3 Stijn13h 06-03-2018 15:01:22
Logo 8 & Logo!App 5 Stijn13h 04-03-2018 19:46:13
Gesloten Pc sneller maken 1 TisjBoy 03-03-2018 11:19:37
Layo1 Layo1 1 2 3 laatste 69 Technojunk 01-03-2018 17:19:56
ATtiny 13 programmeren 16 Bertjebuk 01-03-2018 16:36:11
SP232AET-L - Transceiver RS232 3 bertbilnaat 01-03-2018 08:49:04
Atag Solar-Q interfacing Atag Solar-Q interfacing 1 2 laatste 30 sytse 28-02-2018 08:41:59
stuurprint vervangen Hdd 500GB Hitachi Deskstar M HD725050VLA360 10 SIMUL 23-02-2018 18:17:17
wifi netwerk ontlasten wifi netwerk ontlasten 1 2 3 laatste 62 BenI2C 19-02-2018 23:44:48
Picbasic interrupt 18 19roland70 18-02-2018 17:47:51
pickit 3 kapot 15 19roland70 15-02-2018 21:41:41
probleem mplab.xc8 c-taal beschrijven output 16 simat 12-02-2018 21:34:47
Siemens TIA v15 11 Arjan Swets 12-02-2018 18:13:12
Niet elke usb stick werkt in mediaplayer 16 buzzy 11-02-2018 08:07:00
siemens smartclient buiten thuisnetwerk? 15 devi777 08-02-2018 07:20:57
Autorouter met ExpressPCB conversie mogelijk? 1 pascalbythree 04-02-2018 19:07:45
online status bewaken... 17 Krikke5150 02-02-2018 19:30:56
Probleem met A9CAD programma 0 Jan T 29-01-2018 13:02:06
LOGO 8 loopt vast 12 Freaky 26-01-2018 23:27:24